GW4066 Weather Reports


time (UTC)temp
C
wind
direction
speed
KPH
gust
KPH
rain 1hr
cm
rain 24hr
cm
rain mn
cm
humidity
%
barometer
mb
20260510044504 16 151 3.2 8.0 0.00 0.00 0.00 68 1027.1
20260510043604 16 132 1.6 9.7 0.00 0.00 0.00 68 1027.1
20260510042704 16 154 3.2 11.3 0.00 0.00 0.00 68 1026.9
20260510041804 16 168 1.6 6.4 0.00 0.00 0.00 67 1026.9
20260510040904 16 182 1.6 11.3 0.00 0.00 0.00 67 1027.1
20260510040005 16 163 3.2 12.9 0.00 0.00 0.00 67 1027.1
20260510035404 16 151 1.6 8.0 0.00 0.00 0.00 67 1027.1
20260510034504 16 165 3.2 11.3 0.00 0.00 0.00 67 1027.2
20260510033625 16 171 6.4 14.5 0.00 0.00 0.00 68 1027.2
20260510032725 16 165 4.8 14.5 0.00 0.00 0.00 68 1027.3
20260510031825 16 173 4.8 11.3 0.00 0.00 0.00 68 1027.3
20260510030904 16 170 4.8 14.5 0.00 0.00 0.00 69 1027.3
20260510030004 16 172 4.8 14.5 0.00 0.00 0.00 68 1027.4
20260510025404 16 164 3.2 11.3 0.00 0.00 0.00 68 1027.5
20260510024504 16 0 0.0 0.0 0.00 0.00 0.00 69 1027.5
20260510023604 16 180 1.6 9.7 0.00 0.00 0.00 69 1027.8
20260510022704 15 183 4.8 9.7 0.00 0.00 0.00 69 1027.8
20260510021825 15 169 6.4 14.5 0.00 0.00 0.00 69 1028.0
20260510020904 15 164 4.8 12.9 0.00 0.00 0.00 69 1028.1
20260510020005 15 181 0.0 4.8 0.00 0.00 0.00 69 1028.1
20260510015425 15 169 3.2 19.3 0.00 0.00 0.00 69 1028.2
20260510014504 15 171 9.7 19.3 0.00 0.00 0.00 69 1028.5
20260510013604 15 179 4.8 12.9 0.00 0.00 0.00 72 1028.5
20260510012704 15 185 4.8 14.5 0.00 0.00 0.00 70 1028.6
20260510011805 15 179 1.6 8.0 0.00 0.00 0.00 70 1028.7
20260510010904 15 193 1.6 8.0 0.00 0.00 0.00 70 1028.7
20260510010004 15 163 1.6 9.7 0.00 0.00 0.00 70 1028.6
20260510005404 15 165 4.8 17.7 0.00 0.00 0.00 70 1028.6
20260510004504 15 174 8.0 17.7 0.00 0.00 0.00 72 1028.6
20260510003625 15 185 6.4 16.1 0.00 0.00 0.00 71 1028.6
20260510002704 15 196 3.2 12.9 0.00 0.00 0.00 74 1028.7
20260510001826 15 204 3.2 9.7 0.00 0.00 0.00 77 1028.7
20260510000904 14 206 1.6 6.4 0.00 0.00 0.00 82 1028.6
20260510000004 14 222 3.2 11.3 0.00 0.00 0.00 84 1028.7
20260509235404 14 219 1.6 8.0 0.00 0.00 0.00 86 1028.6
20260509234504 13 217 3.2 8.0 0.00 0.00 0.00 88 1028.7
20260509233604 13 219 1.6 9.7 0.00 0.00 0.00 88 1028.6
20260509232704 13 221 1.6 8.0 0.00 0.00 0.00 89 1028.6
20260509231804 13 223 3.2 8.0 0.00 0.00 0.00 90 1028.6
20260509230905 13 217 1.6 8.0 0.00 0.00 0.00 90 1028.6
20260509230004 13 224 1.6 9.7 0.00 0.00 0.00 91 1028.5
20260509225404 13 220 3.2 8.0 0.00 0.00 0.00 91 1028.5
20260509224504 13 221 1.6 8.0 0.00 0.00 0.00 92 1028.4
20260509223625 12 250 1.6 6.4 0.00 0.00 0.00 92 1028.3
20260509222704 12 250 0.0 4.8 0.00 0.00 0.00 92 1028.2
20260509221805 12 262 0.0 4.8 0.00 0.00 0.00 92 1028.2
20260509220904 12 275 0.0 4.8 0.00 0.00 0.00 93 1028.1
20260509220004 12 281 0.0 3.2 0.00 0.00 0.00 93 1027.8
20260509215405 12 283 0.0 4.8 0.00 0.00 0.00 93 1027.9
20260509214504 12 301 0.0 3.2 0.00 0.00 0.00 93 1027.7
20260509213605 12 0 0.0 0.0 0.00 0.00 0.00 93 1027.7
20260509212704 12 0 0.0 0.0 0.00 0.00 0.00 93 1027.4
20260509211804 12 238 0.0 1.6 0.00 0.00 0.00 93 1027.3
20260509210925 12 239 0.0 4.8 0.00 0.00 0.00 93 1027.2
20260509210004 12 238 0.0 4.8 0.00 0.00 0.00 93 1027.2
20260509205404 12 240 0.0 3.2 0.00 0.00 0.00 93 1027.2
20260509204504 12 243 0.0 4.8 0.00 0.00 0.00 93 1027.1
20260509203625 12 240 0.0 1.6 0.00 0.00 0.00 93 1027.0
20260509202704 12 0 0.0 0.0 0.00 0.00 0.00 93 1027.0
20260509201826 12 0 0.0 0.0 0.00 0.00 0.00 93 1026.8
20260509200925 12 0 0.0 0.0 0.00 0.00 0.00 93 1026.8
20260509200025 12 0 0.0 0.0 0.00 0.00 0.00 93 1026.7
20260509195425 12 0 0.0 0.0 0.00 0.00 0.00 93 1026.7
20260509194504 12 0 0.0 0.0 0.00 0.00 0.00 93 1026.5
20260509193604 12 235 0.0 1.6 0.00 0.00 0.00 93 1026.4
20260509192705 12 0 0.0 0.0 0.00 0.00 0.00 93 1026.5
20260509191804 12 235 0.0 3.2 0.00 0.00 0.00 93 1026.2
20260509190904 12 234 0.0 3.2 0.00 0.00 0.00 93 1026.2
20260509190004 12 234 0.0 4.8 0.00 0.00 0.00 93 1026.2
20260509185404 12 230 0.0 1.6 0.00 0.00 0.00 93 1026.2
20260509184525 12 225 0.0 4.8 0.00 0.00 0.00 92 1026.2
20260509183625 12 223 0.0 4.8 0.00 0.00 0.00 93 1026.0
20260509182704 12 228 1.6 6.4 0.00 0.00 0.00 92 1026.0
20260509181826 12 225 0.0 3.2 0.00 0.00 0.00 92 1025.8
20260509180904 12 225 0.0 3.2 0.00 0.00 0.00 92 1025.7
20260509180004 12 206 0.0 6.4 0.00 0.00 0.00 92 1025.9
20260509175404 12 195 1.6 6.4 0.00 0.00 0.00 92 1025.7
20260509174504 12 214 1.6 6.4 0.00 0.00 0.00 92 1025.8
20260509173625 12 227 1.6 6.4 0.00 0.00 0.00 92 1025.7
20260509172704 12 235 0.0 6.4 0.00 0.00 0.00 92 1025.7
20260509171804 12 239 0.0 6.4 0.00 0.00 0.00 92 1025.7
20260509170904 12 231 0.0 4.8 0.00 0.00 0.00 92 1025.8
20260509170025 13 229 1.6 6.4 0.00 0.00 0.00 91 1025.9
20260509165404 13 225 3.2 8.0 0.00 0.00 0.00 91 1026.0
20260509164525 13 221 3.2 8.0 0.00 0.00 0.00 91 1025.9
20260509163604 13 206 3.2 12.9 0.00 0.00 0.00 90 1025.9
20260509162704 13 225 1.6 8.0 0.00 0.00 0.00 90 1026.0
20260509161804 13 229 1.6 4.8 0.00 0.00 0.00 90 1026.0
20260509160904 13 230 0.0 4.8 0.00 0.00 0.00 89 1026.1
20260509160004 13 237 0.0 4.8 0.00 0.00 0.00 89 1026.0
20260509155403 13 237 0.0 4.8 0.00 0.00 0.00 89 1026.1
20260509154525 13 236 1.6 4.8 0.00 0.00 0.00 89 1025.9
20260509153624 13 234 1.6 6.4 0.00 0.00 0.00 89 1026.2
20260509152705 13 217 1.6 6.4 0.00 0.00 0.00 89 1026.2
20260509151804 13 207 1.6 6.4 0.00 0.00 0.00 89 1026.0
20260509150926 13 222 1.6 6.4 0.00 0.00 0.00 89 1026.1
20260509150004 13 206 0.0 4.8 0.00 0.00 0.00 88 1026.1
20260509145405 13 195 1.6 8.0 0.00 0.00 0.00 88 1026.1
20260509144504 13 209 4.8 9.7 0.00 0.00 0.00 88 1026.0
20260509143605 13 208 3.2 11.3 0.00 0.00 0.00 88 1026.0
20260509142725 13 209 4.8 11.3 0.00 0.00 0.00 88 1026.1
20260509141804 13 193 3.2 9.7 0.00 0.00 0.00 89 1026.1
20260509140904 13 193 6.4 11.3 0.00 0.00 0.00 89 1026.0
20260509140025 13 195 3.2 9.7 0.00 0.00 0.00 89 1026.0
20260509135404 13 198 3.2 9.7 0.00 0.00 0.00 89 1026.2
20260509134504 13 192 4.8 12.9 0.00 0.00 0.00 90 1026.1
20260509133603 13 192 3.2 9.7 0.00 0.00 0.00 90 1026.0
20260509132704 14 194 3.2 8.0 0.00 0.00 0.00 90 1026.0
20260509131804 14 192 1.6 6.4 0.00 0.00 0.00 90 1025.9
20260509130904 14 194 0.0 4.8 0.00 0.00 0.00 90 1026.1
20260509130005 14 0 0.0 0.0 0.00 0.00 0.00 90 1026.1
20260509125404 14 0 0.0 0.0 0.00 0.00 0.00 90 1026.1
20260509124504 14 0 0.0 0.0 0.00 0.00 0.00 89 1026.1
20260509123604 14 0 0.0 0.0 0.00 0.00 0.00 90 1026.2
20260509122705 14 0 0.0 0.0 0.00 0.00 0.00 89 1026.1
20260509121804 14 0 0.0 0.0 0.00 0.00 0.00 89 1026.0
20260509120905 14 194 0.0 4.8 0.00 0.00 0.00 89 1026.0
20260509120004 14 194 1.6 4.8 0.00 0.00 0.00 89 1026.0
20260509115404 14 194 3.2 6.4 0.00 0.00 0.00 89 1026.0
20260509114504 14 191 3.2 6.4 0.00 0.00 0.00 88 1026.1
20260509113604 14 192 0.0 4.8 0.00 0.00 0.00 88 1025.9
20260509112704 14 192 0.0 4.8 0.00 0.00 0.00 88 1025.8
20260509111803 14 175 1.6 6.4 0.00 0.00 0.00 88 1025.7
20260509110903 14 169 1.6 6.4 0.00 0.00 0.00 88 1025.7
20260509110004 14 0 0.0 0.0 0.00 0.00 0.00 88 1025.7
20260509105404 14 0 0.0 0.0 0.00 0.00 0.00 88 1025.7
20260509104504 14 164 1.6 6.4 0.00 0.00 0.00 88 1025.6
20260509103604 14 161 1.6 8.0 0.00 0.00 0.00 88 1025.6
20260509102704 14 157 1.6 8.0 0.00 0.00 0.00 88 1025.6
20260509101804 14 0 0.0 0.0 0.00 0.00 0.00 88 1025.5
20260509100925 14 0 0.0 0.0 0.00 0.00 0.00 88 1025.7
20260509100005 13 0 0.0 0.0 0.00 0.00 0.00 88 1025.6
20260509095404 13 153 0.0 6.4 0.00 0.00 0.00 88 1025.7
20260509094504 13 159 0.0 8.0 0.00 0.00 0.00 88 1025.6
20260509093604 13 0 0.0 0.0 0.00 0.00 0.00 88 1025.5
20260509092725 13 0 0.0 0.0 0.00 0.00 0.00 88 1025.5
20260509091804 13 0 0.0 0.0 0.00 0.00 0.00 88 1025.5
20260509090904 13 0 0.0 0.0 0.00 0.00 0.00 88 1025.4
20260509090004 13 0 0.0 0.0 0.00 0.00 0.00 88 1025.5
20260509085404 13 0 0.0 0.0 0.00 0.00 0.00 88 1025.3
20260509084504 13 0 0.0 0.0 0.00 0.00 0.00 87 1025.4
20260509083604 13 0 0.0 0.0 0.00 0.00 0.00 87 1025.2
20260509082704 13 0 0.0 0.0 0.00 0.00 0.00 86 1025.2
20260509081804 13 0 0.0 0.0 0.00 0.00 0.00 86 1025.1
20260509080904 14 0 0.0 0.0 0.00 0.00 0.00 86 1025.0
20260509080004 14 0 0.0 0.0 0.00 0.00 0.00 85 1024.9
20260509075425 14 0 0.0 0.0 0.00 0.00 0.00 85 1024.9
20260509074504 14 0 0.0 0.0 0.00 0.00 0.00 84 1024.8
20260509073604 15 168 1.6 8.0 0.00 0.00 0.00 84 1024.7
20260509072704 15 164 4.8 8.0 0.00 0.00 0.00 83 1024.5
20260509071804 15 174 3.2 8.0 0.00 0.00 0.00 82 1024.5
20260509070904 15 173 3.2 12.9 0.00 0.00 0.00 81 1024.3
20260509070004 15 168 4.8 12.9 0.00 0.00 0.00 80 1024.4
20260509065425 16 169 4.8 11.3 0.00 0.00 0.00 79 1024.4
20260509064504 16 163 3.2 9.7 0.00 0.00 0.00 78 1024.3
20260509063603 16 167 6.4 12.9 0.00 0.00 0.00 78 1024.2
20260509062704 16 167 6.4 14.5 0.00 0.00 0.00 76 1024.1
20260509061804 16 158 4.8 12.9 0.00 0.00 0.00 77 1024.1
20260509060904 16 167 8.0 17.7 0.00 0.00 0.00 75 1024.1
20260509060005 17 173 3.2 8.0 0.00 0.00 0.00 75 1024.1
20260509055404 17 165 4.8 9.7 0.00 0.00 0.00 74 1024.1
20260509054504 17 169 6.4 16.1 0.00 0.00 0.00 74 1024.0
20260509053625 17 179 6.4 14.5 0.00 0.00 0.00 74 1023.8
20260509052725 16 191 4.8 11.3 0.00 0.00 0.00 76 1023.8
20260509051804 16 172 4.8 12.9 0.00 0.00 0.00 76 1024.0
20260509050904 16 180 6.4 16.1 0.00 0.00 0.00 76 1024.0
20260509050003 16 178 8.0 16.1 0.00 0.00 0.00 76 1024.2
20260509045404 16 177 6.4 16.1 0.00 0.00 0.00 76 1024.0